When you browse on this site, cookies collect data to enhance your experience and personalize the content and advertising you see.
Visit our Privacy Policy to learn more. By continuing to use the site, you agree to this use of cookies and data.
  • In Latvia
  • List of Countries
  • For 7 days
  • Water Temperature
  • Satellite Maps
  • Weather Map
  • Weather Widgets
  • user-avatar
    Login

    Hourly Weather Namyur

    Today, 21 April, Sunday

    Time Temperature Precipitation Wind Pressure Humidity
    00:00 +13°C° 0 mm 2 mps 757 mmHg 69%
    01:00 +13°C° 0 mm 2 mps 757 mmHg 70%
    02:00 +12°C° 0 mm 2 mps 756 mmHg 71%
    03:00 +12°C° 0 mm 1 mps 756 mmHg 72%
    04:00 +12°C° 0 mm 1 mps 756 mmHg 73%
    05:00 +13°C° 0 mm 1 mps 756 mmHg 73%
    06:00 +14°C° 0 mm 1 mps 756 mmHg 70%
    07:00 +16°C° 0 mm 2 mps 755 mmHg 66%
    08:00 +18°C° 0 mm 2 mps 755 mmHg 62%
    09:00 +20°C° 0 mm 2 mps 755 mmHg 58%
    10:00 +21°C° 0 mm 3 mps 754 mmHg 54%
    11:00 +22°C° 0 mm 3 mps 754 mmHg 50%
    12:00 +24°C° 0 mm 3 mps 754 mmHg 47%
    13:00 +24°C° 0 mm 3 mps 753 mmHg 47%
    14:00 +24°C° 0 mm 3 mps 752 mmHg 47%
    15:00 +25°C° 0 mm 3 mps 752 mmHg 47%
    16:00 +22°C° 0 mm 3 mps 751 mmHg 53%
    17:00 +21°C° 0 mm 3 mps 751 mmHg 60%
    18:00 +19°C° 0 mm 3 mps 751 mmHg 66%
    19:00 +18°C° 0 mm 2 mps 751 mmHg 67%
    20:00 +16°C° 0 mm 2 mps 751 mmHg 68%
    21:00 +15°C° 0 mm 2 mps 751 mmHg 69%
    22:00 +14°C° 0 mm 2 mps 750 mmHg 68%
    23:00 +13°C° 0 mm 2 mps 750 mmHg 68%

    Tomorrow, 22 April, Monday

    Time Temperature Precipitation Wind Pressure Humidity
    00:00 +13°C° 0 mm 2 mps 750 mmHg 68%
    01:00 +13°C° 0 mm 2 mps 749 mmHg 66%
    02:00 +12°C° 0 mm 2 mps 749 mmHg 65%
    03:00 +12°C° 0 mm 2 mps 748 mmHg 64%
    04:00 +12°C° 0 mm 2 mps 748 mmHg 66%
    05:00 +12°C° 0 mm 2 mps 748 mmHg 68%
    06:00 +13°C° 0 mm 2 mps 748 mmHg 70%
    07:00 +14°C° 0 mm 3 mps 747 mmHg 64%
    08:00 +17°C° 0 mm 4 mps 747 mmHg 58%
    09:00 +20°C° 0 mm 4 mps 747 mmHg 53%
    10:00 +21°C° 0 mm 4 mps 746 mmHg 50%
    11:00 +22°C° 0 mm 4 mps 746 mmHg 48%
    12:00 +22°C° 0 mm 4 mps 745 mmHg 46%
    13:00 +23°C° 0 mm 4 mps 745 mmHg 46%
    14:00 +23°C° 0 mm 4 mps 744 mmHg 47%
    15:00 +23°C° 0 mm 4 mps 743 mmHg 48%
    16:00 +21°C° 0 mm 4 mps 743 mmHg 54%
    17:00 +20°C° 0 mm 4 mps 743 mmHg 60%
    18:00 +18°C° 0 mm 3 mps 742 mmHg 66%
    19:00 +17°C° 0 mm 3 mps 742 mmHg 68%
    20:00 +15°C° 0 mm 4 mps 742 mmHg 69%
    21:00 +13°C° 0 mm 4 mps 742 mmHg 71%
    22:00 +13°C° 0 mm 4 mps 742 mmHg 71%
    23:00 +12°C° 0 mm 3 mps 742 mmHg 71%

    Day after tomorrow, 23 April, Tuesday

    Time Temperature Precipitation Wind Pressure Humidity
    00:00 +11°C° 0 mm 3 mps 742 mmHg 71%
    01:00 +11°C° 0 mm 3 mps 741 mmHg 71%
    02:00 +10°C° 0 mm 3 mps 741 mmHg 71%
    03:00 +9°C° 0 mm 3 mps 741 mmHg 71%
    04:00 +9°C° 0 mm 3 mps 740 mmHg 73%
    05:00 +10°C° 0 mm 3 mps 740 mmHg 75%
    06:00 +10°C° 0 mm 3 mps 740 mmHg 76%
    07:00 +12°C° 0 mm 3 mps 740 mmHg 72%
    08:00 +13°C° 0 mm 3 mps 740 mmHg 68%
    09:00 +16°C° 0 mm 3 mps 740 mmHg 64%
    10:00 +18°C° 0 mm 3 mps 740 mmHg 62%
    11:00 +19°C° 0 mm 3 mps 739 mmHg 59%
    12:00 +20°C° 0 mm 3 mps 739 mmHg 57%
    13:00 +21°C° 0 mm 3 mps 739 mmHg 57%
    14:00 +21°C° 0 mm 3 mps 739 mmHg 56%
    15:00 +22°C° 0 mm 3 mps 738 mmHg 56%
    16:00 +21°C° 0 mm 3 mps 738 mmHg 62%
    17:00 +20°C° 0 mm 3 mps 738 mmHg 68%
    18:00 +19°C° 0 mm 2 mps 738 mmHg 74%
    19:00 +17°C° 0 mm 2 mps 738 mmHg 78%
    20:00 +16°C° 0 mm 2 mps 739 mmHg 82%
    21:00 +14°C° 0 mm 2 mps 739 mmHg 86%
    22:00 +14°C° 0 mm 2 mps 739 mmHg 88%
    23:00 +14°C° 0 mm 2 mps 739 mmHg 89%

    24 April, Wednesday

    Time Temperature Precipitation Wind Pressure Humidity
    00:00 +13°C° 0 mm 2 mps 739 mmHg 90%
    01:00 +13°C° 0.1 mm 2 mps 739 mmHg 92%
    02:00 +12°C° 0.1 mm 3 mps 739 mmHg 93%
    03:00 +12°C° 0.1 mm 3 mps 739 mmHg 95%
    04:00 +13°C° 0.1 mm 3 mps 740 mmHg 93%
    05:00 +13°C° 0.1 mm 3 mps 740 mmHg 92%
    06:00 +14°C° 0.1 mm 4 mps 740 mmHg 91%
    07:00 +15°C° 0.3 mm 4 mps 740 mmHg 86%
    08:00 +17°C° 0.3 mm 5 mps 741 mmHg 81%
    09:00 +19°C° 0.3 mm 6 mps 741 mmHg 76%
    10:00 +20°C° 0.3 mm 6 mps 741 mmHg 71%
    11:00 +21°C° 0.3 mm 7 mps 741 mmHg 66%
    12:00 +22°C° 0.3 mm 7 mps 741 mmHg 61%
    13:00 +22°C° 0 mm 7 mps 741 mmHg 60%
    14:00 +22°C° 0 mm 7 mps 741 mmHg 59%
    15:00 +22°C° 0 mm 7 mps 741 mmHg 59%
    16:00 +21°C° 0.1 mm 6 mps 741 mmHg 63%
    17:00 +20°C° 0.1 mm 5 mps 741 mmHg 67%
    18:00 +19°C° 0.1 mm 5 mps 741 mmHg 72%
    19:00 +17°C° 0.1 mm 5 mps 742 mmHg 75%
    20:00 +16°C° 0.1 mm 5 mps 742 mmHg 77%
    21:00 +15°C° 0.1 mm 4 mps 742 mmHg 80%
    22:00 +14°C° 0.9 mm 4 mps 743 mmHg 84%
    23:00 +13°C° 0.9 mm 4 mps 744 mmHg 87%

    25 April, Thursday

    Time Temperature Precipitation Wind Pressure Humidity
    00:00 +11°C° 0.9 mm 4 mps 744 mmHg 90%
    01:00 +11°C° 0 mm 4 mps 744 mmHg 91%
    02:00 +10°C° 0 mm 3 mps 744 mmHg 92%
    03:00 +10°C° 0 mm 2 mps 744 mmHg 93%
    04:00 +10°C° 0 mm 3 mps 744 mmHg 91%
    05:00 +10°C° 0 mm 4 mps 744 mmHg 88%
    06:00 +10°C° 0 mm 4 mps 744 mmHg 86%
    07:00 +12°C° 0 mm 5 mps 744 mmHg 79%
    08:00 +14°C° 0 mm 6 mps 744 mmHg 72%
    09:00 +15°C° 0 mm 7 mps 744 mmHg 65%
    10:00 +16°C° 0 mm 7 mps 744 mmHg 63%
    11:00 +17°C° 0 mm 8 mps 743 mmHg 61%
    12:00 +18°C° 0 mm 8 mps 743 mmHg 59%
    13:00 +17°C° 0.2 mm 8 mps 743 mmHg 64%
    14:00 +16°C° 0.2 mm 9 mps 743 mmHg 70%
    15:00 +13°C° 0.2 mm 9 mps 742 mmHg 75%
    16:00 +12°C° 0.6 mm 8 mps 743 mmHg 79%
    17:00 +11°C° 0.6 mm 7 mps 743 mmHg 84%
    18:00 +10°C° 0.6 mm 6 mps 744 mmHg 88%
    19:00 +9°C° 0.1 mm 6 mps 744 mmHg 88%
    20:00 +9°C° 0.1 mm 6 mps 744 mmHg 88%
    21:00 +8°C° 0.1 mm 5 mps 745 mmHg 88%
    22:00 +8°C° 0 mm 5 mps 745 mmHg 88%
    23:00 +8°C° 0 mm 5 mps 745 mmHg 88%

    26 April, Friday

    Time Temperature Precipitation Wind Pressure Humidity
    00:00 +7°C° 0 mm 5 mps 746 mmHg 88%
    01:00 +7°C° 0 mm 5 mps 746 mmHg 89%
    02:00 +7°C° 0 mm 5 mps 746 mmHg 89%
    03:00 +6°C° 0 mm 4 mps 746 mmHg 90%
    04:00 +6°C° 0 mm 5 mps 747 mmHg 89%
    05:00 +6°C° 0 mm 5 mps 747 mmHg 89%
    06:00 +6°C° 0 mm 5 mps 747 mmHg 88%
    07:00 +7°C° 0 mm 6 mps 748 mmHg 84%
    08:00 +8°C° 0 mm 6 mps 748 mmHg 80%
    09:00 +9°C° 0 mm 6 mps 749 mmHg 76%
    10:00 +10°C° 0.2 mm 6 mps 749 mmHg 72%
    11:00 +11°C° 0.2 mm 6 mps 749 mmHg 68%
    12:00 +13°C° 0.2 mm 6 mps 749 mmHg 63%
    13:00 +13°C° 0.2 mm 6 mps 749 mmHg 63%
    14:00 +13°C° 0.2 mm 6 mps 749 mmHg 62%
    15:00 +14°C° 0.2 mm 6 mps 750 mmHg 62%
    16:00 +13°C° 0.2 mm 5 mps 750 mmHg 68%
    17:00 +12°C° 0.2 mm 4 mps 751 mmHg 74%
    18:00 +11°C° 0.2 mm 3 mps 751 mmHg 79%
    19:00 +10°C° 0 mm 3 mps 752 mmHg 82%
    20:00 +8°C° 0 mm 4 mps 752 mmHg 85%
    21:00 +7°C° 0 mm 4 mps 753 mmHg 88%
    22:00 +6°C° 0 mm 4 mps 753 mmHg 89%
    23:00 +7°C° 0 mm 3 mps 754 mmHg 90%
    Show more